Flag for South Africa Weather past 2 weeks in Bloemfontein, South Africa

Now
90 °F

Scattered clouds.


Feels Like: 86 °F
Forecast: 58 / 86 °F
Wind: 7 mph from West

Location: Bloemfontein Airport

Current Time: Oct 24, 2014 at 2:42:00 PM

Latest Report: Oct 24, 2014 at 2:00 PM


Visibility: N/A

Pressure: 30.01 "Hg

Humidity: 12%

Dew point: 30 °F

Location of BloemfonteinLocation

Historic Weather in Bloemfontein — Graph

°F

Bloemfontein temperature yesterday

Maximum temperature yesterday: 88 °F (at 2:00 PM)
Minimum temperature yesterday: 57 °F (at 5:00 AM)
Average temperature yesterday: 76 °F

Past Weeks' High & Low Weather Summary

 TemperatureHumidityPressure
High90 °F (Oct 21, 3:00 PM)88% (Oct 12, 6:00 AM)30.27 "Hg (Oct 12, 6:00 AM)
Low39 °F (Oct 18, 5:00 AM)5% (Oct 21, 5:00 PM)29.77 "Hg (Oct 16, 12:00 PM)
Average69 °F36%30.09 "Hg
* Reported Oct 9 1:00 PM — Oct 24 1:00 PM, Bloemfontein, Weather by CustomWeather, © 2014

Note: Actual official high and low records may vary slightly from our data, if they occured in-between our weather recording intervals... More about our weather records

Advertising

Bloemfontein weather history for previous 24 hours

 ConditionsComfort  
Time TempWeatherWind HumidityBarometerVisibility
1:00 PM
Oct 24
88 °FPassing clouds.7 mph18%30.01 "HgN/A
12:00 PM84 °FSunny.5 mph22%30.04 "Hg10 mi
11:00 AM82 °FSunny.3 mph17%30.07 "Hg10 mi
10:00 AM79 °FSunny.6 mph30%30.09 "Hg10 mi
9:00 AM73 °FPassing clouds.5 mph36%30.07 "HgN/A
8:00 AM68 °FSunny.6 mph40%30.09 "Hg10 mi
5:00 AM64 °FSunny.3 mph43%30.04 "Hg10 mi
2:00 AM68 °FMild.8 mph33%30.04 "HgN/A
11:00 PM
Oct 23
75 °FMild.2 mph21%30.09 "HgN/A
8:00 PM79 °FPassing clouds.7 mph16%30.01 "HgN/A
7:00 PM82 °FThunderstorms. Passing clouds.9 mph20%29.95 "HgN/A
6:00 PM86 °FThunderstorms. Passing clouds.10 mph18%29.92 "HgN/A
5:00 PM86 °FPassing clouds.5 mph12%29.95 "HgN/A
4:00 PM88 °FPassing clouds.5 mph19%29.95 "HgN/A
3:00 PM88 °FSunny.5 mph24%29.98 "Hg10 mi
2:00 PM88 °FSunny.6 mph24%30.01 "Hg10 mi
Weather by CustomWeather, © 2014

See weather overviewHow to use our weather pages